Stations météo

réclame
Mon MeteoGroup
Loch Glascarnoch, Grande-Bretagne (3031): Température de l'air & dewpoint: 12.11.2019 22:00:00 - 18.11.2019 22:00:00 (GMT)Loch Glascarnoch, Grande-Bretagne (3031): Température de l'air -20cm & Température de l'air -100cm: 12.11.2019 22:00:00 - 18.11.2019 22:00:00 (GMT)Loch Glascarnoch, Grande-Bretagne (3031): Vitesse du vent: 12.11.2019 22:00:00 - 18.11.2019 22:00:00 (GMT)Loch Glascarnoch, Grande-Bretagne (3031): Direction du vent: 12.11.2019 22:00:00 - 18.11.2019 22:00:00 (GMT)Loch Glascarnoch, Grande-Bretagne (3031): reduced air pressure: 12.11.2019 22:00:00 - 18.11.2019 22:00:00 (GMT)Loch Glascarnoch, Grande-Bretagne (3031): visibility: 12.11.2019 22:00:00 - 18.11.2019 22:00:00 (GMT)Loch Glascarnoch, Grande-Bretagne (3031): Ensoleillement: 12.11.2019 22:00:00 - 18.11.2019 22:00:00 (GMT)Loch Glascarnoch, Grande-Bretagne (3031): Quantités de précipitations: 12.11.2019 22:00:00 - 18.11.2019 22:00:00 (GMT)
Date & Time tt [°C] td [°C] tt -20cm [°C] tt -100cm [°C] ff [km/h] ff [knt] dd ppp [hPa] vv [km] sd [min] rr [mm]
18.11.2019 22:00:00 -6,8 -7,8 - - 0 0 N 1018,0 45 0 0,0
18.11.2019 21:00:00 -6,1 -7,0 - - 0 0 N 1018,2 50 0 0,0
18.11.2019 20:00:00 -6,1 -7,0 - - 0 0 N 1018,5 40 0 0,0
18.11.2019 19:00:00 -6,1 -7,0 - - 0 0 N 1018,7 50 0 0,0
18.11.2019 18:00:00 -5,4 -6,3 - - 0 0 N 1018,5 27 0 0,0
18.11.2019 17:00:00 -4,5 -6,1 - - 2 1 WNW 1018,7 45 0 0,0
18.11.2019 16:00:00 -1,9 -3,9 - - 2 1 ESE 1018,4 45 6 0,0
18.11.2019 15:00:00 1,2 -2,0 - - 2 1 SSE 1018,0 45 60 0,0
18.11.2019 14:00:00 2,9 -0,3 - - 2 1 S 1018,5 35 60 0,0
18.11.2019 13:00:00 2,6 0,3 - - 2 1 S 1018,9 35 60 0,0
18.11.2019 12:00:00 1,6 -0,3 - - 0 0 N 1019,5 35 60 0,0
18.11.2019 11:00:00 -0,7 -1,6 - - 2 1 SSE 1020,0 35 60 0,0
18.11.2019 10:00:00 -2,7 -3,3 - - 0 0 N 1020,5 30 12 0,0
18.11.2019 09:00:00 -1,8 -2,1 3,7 4,9 4 2 S 1020,6 3,3 0 0,0
18.11.2019 08:00:00 -4,9 -5,8 - - 2 1 S 1020,8 35 0 0,0
18.11.2019 07:00:00 -3,5 -4,1 - - 4 2 S 1020,5 40 0 0,0
18.11.2019 06:00:00 -4,2 -4,8 - - 4 2 SSE 1020,8 50 0 0,0
18.11.2019 05:00:00 -5,2 -6,2 - - 5 3 SSE 1020,9 45 0 0,0
18.11.2019 04:00:00 -4,2 -4,9 - - 4 2 SSE 1020,8 30 0 0,0
18.11.2019 03:00:00 -1,0 -1,3 - - 4 2 SSE 1020,7 4,2 0 0,0
18.11.2019 02:00:00 0,1 -0,2 - - 4 2 SW 1020,4 40 0 0,0
18.11.2019 01:00:00 -0,2 -0,5 - - 4 2 ENE 1020,6 30 0 0,0
18.11.2019 00:00:00 -1,7 -2,0 - - 2 1 NW 1021,1 1,1 - 0,0
17.11.2019 23:00:00 -2,2 -2,6 - - 5 3 NW 1020,7 45 0 0,0
17.11.2019 22:00:00 -3,7 -4,5 - - 4 2 W 1021,2 45 0 0,0
17.11.2019 21:00:00 -2,8 -3,5 - - 4 2 W 1021,1 45 0 0,0
17.11.2019 20:00:00 -2,7 -3,7 - - 4 2 W 1020,9 35 0 0,0
17.11.2019 19:00:00 -0,6 -1,0 - - 4 2 W 1020,4 30 0 0,0
17.11.2019 18:00:00 -0,4 -1,2 - - 5 3 W 1020,3 45 0 0,0
17.11.2019 17:00:00 -0,3 -1,0 - - 4 2 WNW 1019,9 10 0 0,0
17.11.2019 16:00:00 0,1 -0,9 - - 4 2 W 1019,3 45 0 0,0
17.11.2019 15:00:00 3,4 1,4 - - 0 0 N 1018,7 40 24 0,4
17.11.2019 14:00:00 4,3 2,1 - - 8 4 WNW 1018,0 30 24 0,0
17.11.2019 13:00:00 2,9 1,5 - - 11 6 WNW 1018,1 35 0 0,0
17.11.2019 12:00:00 3,5 2,7 - - 13 7 W 1017,2 40 0 0,0
17.11.2019 11:00:00 3,5 2,9 - - 13 7 WNW 1016,7 29 0 0,0
17.11.2019 10:00:00 2,9 2,3 - - 15 8 WNW 1016,1 6 0 0,2
17.11.2019 09:00:00 2,2 1,7 3,7 5,0 16 9 WNW 1015,3 30 0 0,2
17.11.2019 08:00:00 0,6 0,3 - - 2 1 WNW 1014,7 3,3 0 0,8
17.11.2019 07:00:00 0,4 0,1 - - 4 2 WNW 1013,5 10 0 0,0
17.11.2019 06:00:00 0,2 -0,1 - - 0 0 N 1012,7 45 0 0,0
17.11.2019 05:00:00 -0,4 -0,7 - - 0 0 N 1012,1 22 0 0,0
17.11.2019 04:00:00 -0,7 -1,2 - - 2 1 NE 1011,9 30 0 0,0
17.11.2019 03:00:00 0,1 -0,3 - - 0 0 N 1011,4 11 0 0,0
17.11.2019 02:00:00 0,0 -0,4 - - 4 2 E 1011,2 12 0 0,0
17.11.2019 01:00:00 -0,3 -0,7 - - 2 1 E 1010,9 30 0 0,0
17.11.2019 00:00:00 -0,5 -1,0 - - 0 0 N 1010,6 35 - 0,0
16.11.2019 23:00:00 -0,7 -1,2 - - 4 2 W 1010,4 50 0 0,0
16.11.2019 22:00:00 -1,5 -2,1 - - 2 1 W 1010,1 50 0 0,0
16.11.2019 21:00:00 -1,0 -1,6 - - 2 1 ESE 1009,9 45 0 0,0
16.11.2019 20:00:00 -0,3 -0,7 - - 8 4 W 1009,8 50 0 0,0
16.11.2019 19:00:00 -0,2 -0,7 - - 2 1 WSW 1009,9 50 0 0,0
16.11.2019 18:00:00 -0,1 -0,6 - - 2 1 W 1009,8 30 0 0,0
16.11.2019 17:00:00 0,4 -0,2 - - 2 1 SSW 1009,6 50 0 0,0
16.11.2019 16:00:00 0,9 0,0 - - 2 1 NE 1009,6 30 0 0,0
16.11.2019 15:00:00 2,3 1,5 - - 2 1 E 1009,5 50 0 0,0
16.11.2019 14:00:00 2,4 1,5 - - 2 1 E 1009,6 45 0 0,0
16.11.2019 13:00:00 2,1 1,2 - - 2 1 E 1010,1 45 0 0,0
16.11.2019 12:00:00 1,7 0,8 - - 4 2 E 1010,4 45 0 0,2
16.11.2019 11:00:00 0,9 0,5 - - 2 1 ESE 1011,0 50 6 0,0
16.11.2019 10:00:00 -0,6 -0,9 - - 2 1 E 1011,9 45 0 0,0
16.11.2019 09:00:00 -1,2 -1,6 3,7 5,0 0 0 N 1012,4 50 0 0,0
16.11.2019 08:00:00 -2,0 -2,5 - - 2 1 SSE 1012,8 45 0 0,0
16.11.2019 07:00:00 -1,6 -2,0 - - 4 2 ENE 1012,8 45 0 0,0
16.11.2019 06:00:00 -1,9 -2,5 - - 5 3 NE 1013,0 50 0 0,0
16.11.2019 05:00:00 -1,4 -2,0 - - 5 3 WNW 1013,3 35 0 0,0
16.11.2019 04:00:00 -2,2 -3,1 - - 2 1 W 1014,1 50 0 0,0
16.11.2019 03:00:00 0,7 0,3 - - 8 4 ENE 1014,5 50 0 0,0
16.11.2019 02:00:00 -0,4 -1,2 - - 2 1 N 1015,0 45 0 0,0
16.11.2019 01:00:00 1,0 0,4 - - 2 1 E 1015,4 45 0 0,0
16.11.2019 00:00:00 0,9 0,2 - - 5 3 WNW 1016,2 50 - 0,0
15.11.2019 23:00:00 1,1 0,6 - - 4 2 W 1016,5 50 0 0,0
15.11.2019 22:00:00 0,5 -0,1 - - 2 1 W 1016,8 40 0 0,0
15.11.2019 21:00:00 0,6 -0,5 - - 4 2 ESE 1017,3 50 0 0,0
15.11.2019 20:00:00 1,2 -0,2 - - 11 6 WNW 1018,3 50 0 0,0
15.11.2019 19:00:00 2,7 1,0 - - 8 4 ESE 1018,1 45 0 0,0
15.11.2019 18:00:00 2,5 0,9 - - 2 1 SSE 1018,5 40 0 0,0
15.11.2019 17:00:00 3,0 0,9 - - 4 2 SSE 1018,7 35 0 0,0
15.11.2019 16:00:00 3,7 1,0 - - 2 1 WNW 1018,9 50 0 0,0
15.11.2019 15:00:00 4,3 1,4 - - 4 2 SSE 1019,0 40 0 0,0
15.11.2019 14:00:00 4,8 1,6 - - 8 4 N 1019,2 50 0 0,0
15.11.2019 13:00:00 4,4 1,1 - - 9 5 NNE 1019,7 40 42 0,0
15.11.2019 12:00:00 5,1 1,1 - - 11 6 NE 1019,7 35 54 0,0
15.11.2019 11:00:00 3,3 1,9 - - 8 4 WNW 1020,3 26 12 0,0
15.11.2019 10:00:00 2,0 0,6 - - 4 2 NNW 1020,7 50 0 0,0
15.11.2019 09:00:00 2,7 1,0 3,7 5,2 5 3 NNW 1020,4 50 0 0,0
15.11.2019 08:00:00 2,3 1,5 - - 8 4 NNW 1020,2 50 0 0,0
15.11.2019 07:00:00 1,2 0,5 - - 13 7 WNW 1019,9 50 0 0,0
15.11.2019 06:00:00 1,1 0,2 - - 5 3 W 1019,7 35 0 0,0
15.11.2019 05:00:00 2,1 1,0 - - 8 4 W 1019,4 50 0 0,0
15.11.2019 04:00:00 0,7 -0,4 - - 11 6 WNW 1019,5 45 0 0,0
15.11.2019 03:00:00 1,9 -0,6 - - 21 11 NW 1019,0 40 0 0,0
15.11.2019 02:00:00 1,1 -0,5 - - 16 9 NW 1019,1 45 0 0,0
15.11.2019 01:00:00 1,7 -0,1 - - 16 9 W 1018,8 50 0 0,0
15.11.2019 00:00:00 1,2 -0,6 - - 15 8 WNW 1018,7 35 - 0,0
14.11.2019 23:00:00 1,2 -0,2 - - 15 8 WNW 1018,6 23 0 0,0
14.11.2019 22:00:00 1,3 0,0 - - 15 8 WNW 1018,3 11 0 0,0
14.11.2019 21:00:00 1,1 0,2 - - 15 8 W 1017,7 7 0 0,2
14.11.2019 20:00:00 0,4 -0,7 - - 8 4 WNW 1017,3 40 0 0,0
14.11.2019 19:00:00 0,3 -1,1 - - 15 8 WNW 1017,0 30 0 0,0
14.11.2019 18:00:00 0,7 -0,4 - - 13 7 WNW 1016,3 35 0 0,0
14.11.2019 17:00:00 1,1 -0,1 - - 9 5 WNW 1015,6 35 0 0,0
14.11.2019 16:00:00 0,6 -0,5 - - 9 5 WNW 1014,8 30 0 0,4
14.11.2019 15:00:00 2,3 0,3 - - 11 6 WNW 1013,9 45 18 0,0
14.11.2019 14:00:00 2,6 0,3 - - 21 11 WNW 1013,4 22 54 0,0
14.11.2019 13:00:00 3,2 0,2 - - 13 7 WNW 1012,7 50 54 0,0
14.11.2019 12:00:00 2,3 0,5 - - 18 10 WNW 1012,4 45 54 0,0
14.11.2019 11:00:00 1,1 0,0 - - 15 8 WNW 1011,9 50 12 0,0
14.11.2019 10:00:00 0,3 -0,4 - - 16 9 WNW 1011,3 50 0 0,0
14.11.2019 09:00:00 0,1 -0,4 3,7 5,5 11 6 WNW 1010,7 30 0 0,0
14.11.2019 08:00:00 -1,0 -1,7 - - 9 5 WNW 1009,7 50 0 0,0
14.11.2019 07:00:00 -0,5 -1,2 - - 13 7 WNW 1008,6 19 0 0,0
14.11.2019 06:00:00 -1,1 -2,1 - - 13 7 WNW 1007,9 23 0 0,0
14.11.2019 05:00:00 -2,5 -3,6 - - 5 3 W 1007,2 45 0 0,0
14.11.2019 04:00:00 -1,8 -2,6 - - 4 2 WSW 1006,5 50 0 0,0
14.11.2019 03:00:00 -1,8 -3,2 - - 15 8 WNW 1006,0 50 0 0,0
14.11.2019 02:00:00 -1,3 -2,8 - - 8 4 WNW 1005,2 50 0 0,0
14.11.2019 01:00:00 -2,6 -3,6 - - 9 5 W 1004,5 40 0 0,0
14.11.2019 00:00:00 -1,4 -2,8 - - 13 7 NW 1003,6 50 - 0,0
13.11.2019 23:00:00 -3,7 -5,2 - - 5 3 W 1002,9 50 0 0,0
13.11.2019 22:00:00 -2,5 -3,7 - - 4 2 WSW 1002,1 50 0 0,0
13.11.2019 21:00:00 -1,7 -3,2 - - 4 2 NNE 1001,2 50 0 0,0
13.11.2019 20:00:00 -3,7 -4,9 - - 5 3 W 1000,6 50 0 0,0
13.11.2019 19:00:00 -2,4 -3,9 - - 2 1 S 999,8 50 0 0,0
13.11.2019 18:00:00 -1,1 -2,3 - - 4 2 ESE 998,9 40 0 0,0
13.11.2019 17:00:00 -1,5 -3,2 - - 2 1 ESE 998,0 50 0 0,0
13.11.2019 16:00:00 -0,2 -2,3 - - 8 4 ESE 997,3 45 18 0,0
13.11.2019 15:00:00 1,8 -1,9 - - 13 7 SE 996,5 50 60 0,0
13.11.2019 14:00:00 1,7 -2,1 - - 4 2 SSE 996,4 40 60 0,0
13.11.2019 13:00:00 2,5 -1,7 - - 9 5 SE 996,2 35 60 0,2
13.11.2019 12:00:00 1,4 -1,2 - - 4 2 E 996,7 45 60 0,0
13.11.2019 11:00:00 -1,0 -2,6 - - 5 3 ESE 997,2 40 60 0,0
13.11.2019 10:00:00 -2,0 -2,4 - - 4 2 W 997,7 30 30 0,0
13.11.2019 09:00:00 -5,4 -6,1 4,5 5,7 2 1 W 998,3 50 24 0,0
13.11.2019 08:00:00 -6,4 -7,3 - - 2 1 W 998,9 50 0 0,0
13.11.2019 07:00:00 -6,5 -7,5 - - 2 1 W 999,0 50 0 0,0
13.11.2019 06:00:00 -5,8 -6,8 - - 4 2 W 999,3 50 0 0,0
13.11.2019 05:00:00 -5,3 -6,1 - - 2 1 W 999,7 50 0 0,0
13.11.2019 04:00:00 -4,7 -5,6 - - 4 2 W 1000,1 50 0 0,0
13.11.2019 03:00:00 -3,8 -4,6 - - 5 3 W 1000,1 45 0 0,0
13.11.2019 02:00:00 -3,8 -4,5 - - 4 2 WNW 1000,8 45 0 0,0
13.11.2019 01:00:00 -2,6 -3,3 - - 2 1 N 1001,1 50 0 0,0
13.11.2019 00:00:00 -2,7 -3,4 - - 5 3 W 1001,4 50 - 0,0
12.11.2019 23:00:00 -0,6 -1,2 - - 2 1 SSE 1001,4 50 0 0,0
12.11.2019 22:00:00 0,3 -0,3 - - 9 5 WNW 1001,4 50 0 0,0

tt = Température de l'air
td = dewpoint
tt -20cm = Température de l'air -20cm
tt -100cm = Température de l'air -100cm
ff = Vitesse du vent
dd = Direction du vent
ppp = reduced air pressure
vv = visibility
sd = Ensoleillement
rr = Quantités de précipitations

stations d'obs. à proximité